Погода в Гамбе

Габон     2°43′14″S   10°01′01″E
темп.,
°C
ветер,
м/с
пор.,
м/с
влажн.,
%
обл.,
%
осадки,
мм/ч
давл.,
гПа
погр.,
м
27 ноября, сб
сб2701:00+26ю2386100 11.3 1011134
04:00+25ю228591 2.8 1010110
07:00+25юв238462 2.9 1011248
10:00+26ююв238492 0.7 1012353
13:00+28ю567773 3.9 1010697
16:00+26юв688199 1.3 1009669
19:00+25юв4788100 2.3 1011525
22:00+25вюв2389100 0.1 1011214
28 ноября, вс
вс2801:00+24св1188100 0.1 1011103
04:00+24св1189100 0.0 101094
07:00+24в118986 0.1 1011101
10:00+28ю117088 0.0 1012659
13:00+28юз327152 0.1 1010891
16:00+27юз34748 0.6 1008614
19:00+26юз348510 1.6 1010247
22:00+26ююз348656 0.4 1012307
29 ноября, пн
пн2901:00+25ююз349090 2.3 1011294
04:00+25ю2388100 1.1 1010118
07:00+25ююв2488100 6.9 1011144
10:00+25юв3486100 3.2 1013260
13:00+27ю557721 3.2 1010799
16:00+26ю567829 0.1 1009747
19:00+25ю458563 0.1 1010468
22:00+25ю348496 0.0 1012352
30 ноября, вт
вт3001:00+25ююв2386100 0.0 1010269
04:00+24юв2489100 0.0 1009245
07:00+25вюв248782 0.1 1012320
10:00+28ююв347391 0.0 1012849
13:00+28ю557619 2.6 1010727
16:00+26ююв568298 0.8 1009524
19:00+26ю248650 0.9 1009288
22:00+25ююв11875 0.0 1011195
1 декабря, ср
ср101:00+25вюв118997 0.0 1010164
04:00+25вюв129296 0.0 1009118
07:00+25всв23915 0.3 1011136
10:00+28ююв227634 0.5 1011591
13:00+28ю547893 2.4 1009722
16:00+27ю567912 4.1 1008647
19:00+26ю368899 7.8 1009331
22:00+26ю3590100 2.3 1011290